Temp
17 18 18 18 19 19 20 20 21 22 22 23 25 25 25 26 26 24 30 33 32 31 31 31 31 33 36 36 38 39 36 36 35 26 38 43 42 43 43 40 41 40 39 36 34
16 17 17 18 18 18 19 19 20 21 23 23 25 25 25 26 24 29 33 33 32 32 30 34 34 36 36 37 38 38 37 38 40 34 39 42 42 42 42 42 40 39 38 36 34
16 16 16 18 18 18 19 20 20 21 22 23 24 25 25 25 28 36 32 32 31 32 33 35 37 37 36 38 39 39 38 40 40 41 41 41 41 42 42 41 41 38 36 35 34
15 15 16 17 18 19 19 20 20 22 22 23 25 25 25 23 33 33 32 32 31 29 32 36 37 37 37 37 39 38 40 40 41 41 41 41 42 41 41 41 43 40 37 35 35
16 16 16 17 18 19 19 20 21 22 23 24 24 25 24 30 33 32 32 32 32 29 33 36 36 37 36 38 39 39 40 40 41 41 41 41 41 41 41 42 43 41 38 36 35
16 16 16 17 18 19 20 20 22 23 24 24 24 25 24 31 36 32 32 29 32 31 34 37 37 38 38 38 38 39 39 39 40 40 40 40 40 41 41 42 42 41 38 37 36
15 16 17 17 18 19 20 21 22 24 24 24 24 23 29 33 35 35 34 32 33 34 35 37 37 37 37 37 39 39 38 39 39 40 40 41 40 40 42 42 42 42 40 39 37
14 15 16 17 18 20 21 23 23 24 24 24 24 23 31 35 34 35 34 35 35 35 36 36 37 37 37 38 37 36 37 36 39 40 41 41 38 41 42 42 42 42 41 40 38
15 15 16 18 19 20 23 24 25 25 24 24 23 27 34 34 34 35 35 35 36 36 36 36 37 36 36 35 35 36 35 37 38 41 41 41 39 40 42 41 41 41 41 41 39
15 15 17 18 21 22 25 26 26 25 25 23 26 31 34 36 35 35 35 36 36 37 36 36 35 34 35 35 33 35 36 38 38 40 40 40 40 40 41 41 41 41 41 41 41
16 16 18 20 21 23 25 23 30 29 29 33 34 35 36 35 35 36 36 36 36 35 34 36 35 34 36 37 37 37 37 37 38 39 39 38 39 40 40 41 40 41 40 41 41
17 17 18 20 22 24 23 30 28 28 28 35 35 35 35 35 35 37 36 35 35 33 35 35 34 37 38 38 37 37 36 36 38 39 39 38 38 39 40 40 40 41 40 41 42
17 18 19 21 23 24 28 27 27 28 29 34 35 36 36 36 36 37 37 37 36 35 36 36 37 39 38 38 37 37 36 36 36 38 38 38 37 38 40 40 40 41 41 41 42
17 17 19 21 21 26 29 27 28 28 30 34 34 36 36 37 35 37 37 36 35 35 36 36 37 37 37 36 37 35 38 37 37 36 35 38 36 37 39 39 40 40 41 41 41
17 18 19 16 18 28 27 27 27 29 32 35 36 36 36 35 36 36 37 36 34 35 35 35 36 36 35 36 37 35 37 36 36 36 35 36 35 37 38 38 39 40 41 41 41
18 18 19 20 19 26 27 27 28 29 32 34 36 35 36 37 36 36 37 36 36 35 36 36 38 37 37 37 37 37 36 36 36 36 34 35 35 36 37 38 39 40 40 40 39
19 20 18 18 27 26 27 29 30 31 35 35 35 36 35 36 36 35 35 35 35 33 33 35 37 38 38 36 37 36 35 33 33 34 34 36 36 36 38 39 39 38 37 38 39
20 22 22 22 24 26 27 29 29 35 35 35 35 35 34 35 35 35 35 35 36 34 33 33 32 35 36 35 34 35 34 32 30 31 33 35 33 35 37 37 39 39 36 38 39
19 24 24 26 26 26 29 30 33 33 33 33 33 33 35 35 34 34 35 35 35 34 31 31 32 34 35 36 36 34 33 35 33 34 34 34 35 36 31 35 36 35 35 38 37
14 23 28 28 27 28 29 28 33 33 32 33 32 33 33 34 33 34 34 35 34 34 33 31 30 33 35 35 35 35 36 32 33 29 29 30 31 26 26 27 28 24 25 23 23
18 28 29 28 28 29 29 32 32 33 31 32 32 32 33 32 33 33 33 34 34 32 32 32 31 31 32 33 33 33 31 30 30 29 27 26 30 29 27 28 25 23 20 21 23
24 28 29 28 29 31 31 31 21 32 32 31 32 31 31 32 31 32 32 33 33 32 30 31 30 29 30 33 34 33 30 29 29 29 30 28 29 29 27 27 22 20 20 17 24
24 28 30 29 28 31 33 32 32 31 32 32 31 32 32 31 29 31 32 33 33 31 29 29 28 27 30 32 33 32 32 31 27 29 28 21 21 29 26 25 20 20 19 18 23
23 28 31 30 30 29 29 30 30 32 30 31 31 31 30 30 31 30 31 32 33 32 27 29 29 28 28 29 30 30 31 32 31 28 28 24 25 28 25 24 22 21 21 19 23
24 28 28 27 29 28 29 29 29 30 31 31 30 30 30 29 30 29 31 31 32 29 30 29 27 28 29 30 30 30 31 32 31 32 31 32 29 23 22 23 22 20 20 22 24
23 25 26 26 27 27 26 27 28 30 30 30 29 30 30 29 29 28 29 29 28 29 29 29 27 28 28 29 30 30 32 32 32 32 33 32 24 20 23 22 23 22 23 21 22
24 24 25 24 26 27 28 29 29 30 29 30 29 29 29 29 29 29 29 29 29 28 28 28 28 27 26 29 30 29 27 28 28 26 25 28 24 25 25 24 23 23 23 23 23
Height
808 804 801 797 794 790 786 783 780 776 773 770 767 764 761 757 754 753 748 742 740 742 743 744 745 740 734 730 723 716 741 745 745 787 716 676 687 671 668 685 681 683 689 702 717
807 803 799 796 792 789 785 781 777 774 771 768 765 763 759 756 752 745 738 736 736 737 740 738 738 733 734 730 722 726 737 728 704 718 708 687 685 683 682 684 690 692 694 706 718
805 801 797 794 790 786 782 778 774 771 768 765 762 760 757 755 749 725 731 734 735 736 738 734 730 729 735 724 721 718 731 710 701 693 691 694 691 681 688 696 686 694 699 706 715
805 801 796 792 788 783 779 775 771 768 764 762 759 757 756 757 756 729 731 733 734 736 738 731 729 733 736 736 713 727 709 705 699 692 694 698 687 691 689 688 674 677 688 701 710
803 799 795 790 785 781 776 771 767 764 761 759 757 755 755 750 734 731 731 732 734 737 736 728 731 730 738 725 716 719 710 700 695 692 691 686 692 692 690 679 673 672 686 699 708
802 798 793 788 782 777 772 767 763 760 757 756 755 754 754 752 726 729 732 733 733 736 732 727 725 720 725 724 726 715 711 706 700 696 691 695 692 686 682 672 674 673 682 691 701
800 796 791 785 779 773 767 762 759 755 754 753 753 753 748 736 726 727 730 732 731 731 729 724 722 724 722 728 712 711 719 708 702 694 690 678 694 691 670 667 674 671 673 679 691
800 794 789 782 776 770 763 758 754 751 751 751 752 754 739 725 726 726 727 726 727 725 725 723 722 721 724 716 720 728 722 734 702 688 676 677 715 682 667 667 669 665 667 672 680
798 793 787 781 774 767 759 754 751 749 749 750 751 748 731 725 725 722 723 724 723 723 724 723 723 727 727 737 740 726 740 725 707 676 676 678 700 680 666 668 673 668 667 668 672
798 792 785 779 772 765 756 750 749 749 748 751 748 747 726 723 721 721 721 721 720 717 721 722 727 738 733 739 760 739 729 714 712 688 678 682 685 674 666 668 668 668 666 666 667
796 790 784 778 771 765 756 750 748 748 745 733 731 726 719 721 721 717 717 718 720 724 739 721 738 741 727 716 712 712 716 717 703 686 692 692 686 677 667 667 668 664 663 661 659
796 789 783 776 770 766 763 756 761 762 754 725 724 724 721 721 722 713 717 721 725 739 723 730 738 713 703 705 711 714 719 716 697 686 689 690 689 674 667 664 663 659 659 653 650
795 790 782 775 770 767 763 764 762 759 755 725 720 719 716 719 719 713 712 711 721 726 721 726 711 693 698 704 714 709 714 712 709 691 683 690 694 683 664 657 653 648 646 644 643
796 790 784 775 774 767 762 764 762 760 761 734 728 718 717 712 721 706 709 716 720 725 716 717 701 705 708 713 708 721 693 694 698 704 718 684 712 682 667 659 648 645 644 642 638
796 790 785 781 776 765 768 764 762 759 773 726 718 713 712 721 713 712 709 714 728 723 720 726 713 713 718 711 700 714 695 698 699 704 703 700 707 682 662 668 653 645 638 633 628
794 790 783 781 776 770 767 764 761 772 769 735 718 720 720 710 712 709 709 708 706 718 710 707 689 695 696 692 697 693 700 699 697 700 720 700 700 693 675 666 651 637 634 632 627
791 786 783 781 770 770 767 761 770 768 725 733 729 721 722 722 720 717 722 721 727 746 736 720 701 686 687 706 693 697 708 730 730 724 717 679 689 679 657 649 644 641 644 646 635
788 782 779 776 774 771 767 765 781 730 732 722 727 726 733 723 720 723 726 726 710 724 738 742 747 709 699 710 717 709 713 735 756 741 721 683 705 688 653 649 633 638 650 645 638
786 779 775 770 771 771 766 770 748 740 734 740 734 738 725 724 732 726 722 725 718 724 753 752 745 712 702 697 699 710 720 693 711 701 706 695 679 664 678 661 662 660 654 643 647
788 779 766 767 769 767 768 767 743 736 738 737 753 735 745 730 738 728 729 718 727 723 726 739 753 720 705 698 694 697 687 718 708 745 747 728 719 737 715 702 694 715 700 681 678
790 771 763 765 766 764 770 744 740 733 742 746 744 745 740 742 739 740 734 721 721 731 729 731 738 737 719 718 715 710 720 724 726 733 757 763 726 707 713 708 704 714 730 722 684
786 775 762 764 769 752 751 744 758 743 736 744 741 747 747 741 746 744 741 728 723 730 744 735 745 751 737 707 694 702 724 730 744 741 729 741 730 704 712 710 712 712 714 720 714
788 769 757 761 770 751 734 742 740 747 742 742 743 737 738 747 759 743 735 722 725 734 747 744 754 763 742 713 699 716 710 714 729 726 736 781 763 705 709 711 716 709 713 723 710
792 771 750 753 751 758 757 751 749 734 746 744 744 740 745 749 739 747 740 727 722 727 739 738 746 753 758 743 725 730 716 704 709 732 728 749 733 713 725 719 714 710 703 719 709
790 769 765 771 755 759 756 756 758 752 737 741 749 747 748 755 747 748 738 732 724 731 732 740 756 745 736 727 724 722 715 705 704 699 706 696 706 731 731 724 716 718 709 714 707
792 784 773 772 764 764 766 763 760 749 746 745 750 742 741 748 748 754 744 743 747 738 741 735 752 741 738 724 717 715 701 694 690 688 684 683 723 732 713 722 714 716 708 706 711
788 786 784 778 767 762 757 751 748 743 746 743 745 749 748 743 739 742 741 740 739 742 742 739 739 743 746 724 717 724 723 711 708 708 715 706 720 716 718 721 717 713 712 713 713
Wind_Speed
25 25 26 27 27 26 26 26 24 25 24 23 20 20 21 22 23 10 12 8 8 12 8 8 15 18 15 17 17 18 14 15 6 15 18 12 8 10 3 10 5 7 11 24 28
26 26 27 27 27 27 27 27 26 26 24 22 20 19 19 20 19 22 23 21 14 12 12 17 15 14 13 18 14 15 15 22 20 22 17 20 14 14 11 6 11 15 21 29 28
26 27 28 27 27 27 28 28 28 27 23 21 19 17 16 13 11 7 9 9 10 11 15 19 13 12 15 16 17 19 17 21 24 23 21 19 19 16 14 14 6 21 21 24 23
26 28 28 28 28 28 29 27 30 25 21 20 17 13 12 4 5 7 8 4 5 12 14 16 15 14 15 17 18 19 20 19 20 21 21 20 18 19 14 16 15 20 25 23 23
27 28 29 29 30 29 31 31 28 21 20 18 12 11 5 8 17 9 7 6 8 13 15 14 15 15 16 15 19 19 19 19 17 20 20 21 18 18 16 15 18 16 23 21 20
27 28 30 31 32 32 31 36 23 21 20 11 8 9 5 14 1 6 6 8 11 15 16 16 14 16 18 19 18 21 22 22 21 22 22 22 20 20 17 18 16 14 22 20 20
29 29 30 32 34 33 38 28 25 22 12 5 7 4 11 16 3 3 8 9 14 17 17 17 17 16 18 21 20 21 23 19 21 23 24 22 18 15 15 11 17 15 16 19 19
31 31 31 34 35 33 34 26 24 12 4 5 6 5 7 5 6 6 10 13 13 16 15 15 18 17 16 18 21 22 25 21 22 24 22 13 15 12 12 15 14 17 16 16 21
30 31 33 34 32 35 27 24 12 5 4 6 4 9 10 1 8 10 12 13 15 16 19 18 15 17 17 18 18 18 19 23 23 21 17 12 11 14 18 11 11 13 8 11 17
30 32 33 34 32 25 25 16 8 5 5 7 13 8 11 3 6 7 10 10 11 7 12 13 11 14 16 14 16 19 19 22 22 22 24 21 14 12 11 18 12 12 13 15 14
31 33 34 33 31 18 28 9 3 5 14 13 6 10 0 4 5 9 1 9 10 9 13 14 14 15 19 19 22 23 23 24 23 23 22 24 22 17 15 16 20 15 17 15 13
31 32 35 33 21 14 14 7 8 7 10 8 6 8 6 4 7 9 4 6 10 11 14 14 16 19 21 18 19 20 23 24 24 22 22 22 24 21 21 16 20 17 16 16 18
31 33 36 31 13 10 6 8 9 10 7 10 10 8 3 6 7 4 4 9 8 13 15 17 17 17 16 16 19 20 20 20 24 22 22 22 24 20 23 16 20 23 19 19 14
31 33 34 28 8 12 2 9 11 7 5 9 8 4 7 9 9 2 4 5 9 12 14 12 15 13 14 16 17 20 20 21 21 20 19 20 17 16 18 19 20 9 12 18 15
31 32 29 12 14 7 11 12 12 6 4 3 7 5 4 6 9 7 3 8 11 13 11 15 15 14 15 16 17 19 21 21 21 21 23 22 14 15 15 16 14 13 17 19 13
31 31 25 3 8 8 13 13 9 5 2 6 1 2 9 13 9 4 10 11 12 9 16 16 14 16 16 8 12 17 19 19 19 17 16 21 19 17 16 15 18 16 14 4 15
32 29 18 11 6 14 13 8 6 6 3 3 3 5 9 9 8 3 8 10 10 6 12 16 14 7 4 10 14 17 18 12 15 13 15 18 17 14 16 17 9 5 15 10 4
35 22 11 12 11 12 11 8 6 1 1 6 8 9 11 9 9 3 10 12 6 2 10 9 12 16 17 16 20 14 16 11 18 16 18 21 12 11 16 16 6 4 10 10 1
34 13 8 9 7 7 7 7 5 10 6 9 12 10 6 7 4 6 9 8 8 8 8 11 15 21 18 17 19 16 14 18 17 19 18 16 20 8 25 11 17 14 17 5 5
22 14 16 4 5 9 7 11 11 6 7 9 12 1 12 5 5 3 4 6 4 8 10 14 19 18 16 18 15 18 13 14 8 10 11 14 19 7 22 23 22 27 23 15 25
8 6 7 4 6 7 9 12 4 3 6 7 11 8 10 7 6 10 6 8 10 9 11 16 12 16 18 16 19 12 10 7 6 3 7 5 9 10 14 14 21 20 23 23 15
8 6 7 4 7 7 10 7 4 9 5 5 6 9 11 11 8 11 12 5 12 11 12 11 9 13 20 20 15 9 5 3 5 9 12 8 13 12 15 15 11 16 19 25 27
5 10 10 4 7 8 6 4 6 9 9 7 7 5 8 8 7 9 10 12 7 9 9 8 9 14 13 17 7 17 15 5 8 10 13 4 7 21 13 11 12 12 5 24 9
5 5 6 6 9 11 13 12 11 7 6 12 11 12 11 11 12 11 12 10 10 3 3 4 11 15 14 18 19 19 22 20 14 5 13 13 16 7 17 7 4 10 12 10 1
4 5 6 7 9 12 12 13 14 15 10 5 7 11 13 12 12 11 14 14 13 1 9 9 14 16 20 23 23 23 25 23 20 20 19 17 3 4 11 11 5 6 6 11 7
5 6 11 11 15 13 11 14 15 16 13 13 11 15 12 11 8 14 14 12 12 15 15 14 15 18 21 21 23 24 24 24 23 18 23 10 12 7 7 13 4 8 2 9 6
15 11 7 9 13 12 11 14 13 8 7 13 12 14 14 11 11 12 15 17 18 18 16 16 13 14 19 20 21 18 17 17 25 10 21 13 14 13 11 9 9 8 10 5 5
Wind_Direction
357 355 354 354 351 349 345 341 337 335 333 329 326 326 319 313 310 303 268 265 220 256 231 222 217 234 245 263 265 270 281 283 61 7 286 2 23 346 103 148 100 81 69 138 144
352 351 350 349 347 346 342 338 335 333 329 326 324 321 313 310 305 275 257 247 246 239 199 203 216 226 248 254 260 258 267 284 303 203 296 338 346 329 324 316 133 109 117 132 150
349 349 347 345 343 342 340 336 334 331 326 322 319 317 309 312 280 246 187 223 242 230 213 222 238 233 252 263 263 261 267 284 300 311 315 308 309 296 332 320 163 137 141 147 157
344 344 344 341 340 339 337 334 332 328 323 320 316 308 306 283 287 109 135 131 196 196 224 235 240 252 249 265 265 259 261 269 292 305 303 297 296 293 305 298 315 147 151 156 163
341 340 340 338 337 337 335 332 330 326 320 317 310 303 303 232 255 158 176 172 177 187 224 236 241 247 256 270 282 285 290 293 288 297 303 297 285 281 277 278 295 121 146 159 171
341 340 337 336 336 336 333 330 329 323 318 311 304 300 241 256 96 146 161 183 193 204 238 250 249 258 277 282 288 290 287 288 288 284 280 272 273 273 265 267 257 154 153 164 177
347 342 339 336 336 334 331 330 325 319 311 286 296 264 259 249 257 263 208 229 224 216 241 248 256 276 280 280 277 289 291 291 288 281 274 269 264 275 286 259 262 250 172 166 176
345 343 342 337 336 333 329 326 322 317 286 258 281 218 253 51 271 253 247 227 214 232 249 285 293 290 281 283 284 280 278 279 279 275 272 239 268 271 270 277 281 238 180 176 175
345 342 341 340 338 334 327 329 316 301 258 247 257 218 254 154 215 220 224 231 248 245 249 256 259 263 269 265 270 262 263 264 264 263 263 246 254 284 276 266 283 286 275 200 185
343 342 342 341 338 337 333 330 300 281 265 241 263 253 252 258 339 298 260 249 266 227 260 237 245 255 250 249 261 275 285 292 299 304 310 301 263 250 268 291 271 263 257 235 229
346 344 342 342 341 341 338 347 233 191 230 279 289 275 274 294 236 213 266 214 240 249 261 235 237 250 243 251 260 271 275 281 286 287 287 290 292 274 275 264 277 235 244 251 240
347 344 340 341 338 338 329 7 30 327 300 264 261 253 232 283 269 191 224 219 187 240 246 240 249 254 253 263 270 277 282 284 285 288 282 274 275 276 275 269 269 278 264 253 234
345 343 340 338 321 314 337 9 336 330 263 242 227 275 236 231 270 260 214 274 268 267 259 259 274 291 290 281 281 277 279 283 288 284 276 279 278 274 270 264 253 249 247 261 243
342 342 340 338 318 334 21 347 337 338 275 140 203 196 231 231 262 133 281 299 284 285 289 293 285 286 296 290 289 285 295 302 292 289 284 285 283 271 279 262 256 205 240 243 235
338 341 337 328 306 332 336 325 327 278 279 154 131 93 268 244 336 184 164 278 263 288 309 286 305 300 293 300 311 297 305 300 298 289 288 282 273 278 262 276 267 259 250 247 259
334 338 330 6 260 308 325 317 290 236 234 138 301 230 256 207 233 281 263 187 261 264 270 262 245 253 290 257 279 278 277 277 277 274 268 273 268 272 271 282 277 247 260 61 342
332 332 311 294 305 330 323 285 254 250 172 112 26 314 309 278 310 195 297 281 238 324 326 318 286 338 10 309 311 324 316 300 291 276 281 271 264 264 270 274 302 117 76 355 27
330 321 291 260 286 310 300 271 265 3 15 67 285 304 260 16 281 299 283 263 170 324 333 344 319 4 347 319 298 294 290 285 289 287 291 297 296 267 282 327 231 124 122 280 268
331 317 253 259 252 297 280 251 325 15 19 349 308 264 232 152 263 295 271 303 19 31 353 310 310 320 304 311 302 316 294 314 303 287 280 279 289 75 3 11 355 347 320 133 78
326 297 256 176 255 274 268 261 303 30 343 308 296 321 303 353 312 286 307 68 316 41 341 314 305 303 313 327 297 277 295 305 303 323 324 316 314 41 16 354 3 13 346 351 343
299 272 120 242 256 256 258 288 347 56 345 307 308 304 288 300 313 303 301 356 49 357 332 312 320 319 314 305 320 347 2 1 308 298 312 250 285 61 20 358 341 340 11 335 305
296 281 136 273 258 242 256 355 12 294 217 268 276 283 290 301 300 302 296 336 38 347 318 357 311 307 316 298 286 342 57 18 298 285 288 296 286 22 18 359 342 343 6 357 274
291 292 262 242 265 279 266 252 269 285 270 269 274 269 291 300 287 277 310 337 331 313 41 341 311 305 311 319 158 342 313 249 212 277 288 109 275 286 3 26 9 326 42 289 337
283 295 194 204 251 280 292 302 283 199 268 284 289 302 297 274 268 272 283 285 290 310 137 309 276 301 298 305 308 305 300 291 261 270 266 214 236 296 335 282 29 350 246 264 89
248 303 1 297 328 342 330 315 303 296 202 250 280 268 262 277 296 298 292 304 310 113 318 316 287 296 297 301 299 292 287 288 292 288 281 298 26 51 313 282 255 276 321 291 47
296 343 340 303 296 275 276 267 276 281 277 288 275 275 283 305 288 300 314 315 311 310 298 289 289 284 284 282 278 279 277 273 269 279 271 345 76 251 257 290 298 21 64 59 11
329 325 278 287 288 278 266 276 292 289 319 297 286 299 295 307 344 324 303 291 281 275 274 270 274 293 289 293 288 281 9 357 352 1 1 344 47 39 13 7 9 6 353 42 14